Probability
44 49 50 47 44 43 42 41 38 32 24 16 9 6 4 1 0 0 0 1 2 3 1 0 0 0 0 0 0 0 0 0 0 0 0 0 0 0 0 0 0 0 0
50 51 50 46 44 45 44 40 37 31 22 14 8 5 4 2 1 0 0 0 2 4 2 0 0 0 0 0 0 0 0 0 0 0 0 0 0 0 0 0 0 0 0
52 51 48 45 43 43 43 37 31 27 20 13 8 5 4 3 1 0 1 1 3 5 4 2 1 0 0 1 0 0 0 0 0 0 0 0 0 0 0 0 0 0 0
46 46 44 41 40 40 39 34 29 25 20 14 8 4 3 3 1 0 2 3 4 6 7 6 4 2 1 1 0 0 0 0 0 0 0 0 0 0 0 0 0 0 0
38 39 38 36 36 36 33 30 27 24 20 15 8 3 1 1 0 0 1 2 4 7 9 8 5 3 1 0 0 0 0 0 0 0 0 0 0 0 0 0 0 0 0
35 35 34 32 30 29 26 23 22 20 17 13 8 3 0 0 0 0 0 1 3 6 9 9 6 3 1 1 0 0 0 0 0 0 0 0 0 0 0 0 0 0 0
32 30 28 26 24 22 19 16 15 14 13 10 7 4 2 2 1 1 0 1 2 5 8 8 7 4 3 2 1 0 0 0 0 0 0 0 0 0 0 0 0 0 0
24 23 21 19 19 18 16 13 11 10 8 7 6 6 6 6 4 3 1 1 2 4 6 6 5 4 4 3 2 0 0 0 0 0 0 0 0 0 0 0 0 0 0
16 16 15 14 15 16 15 13 10 8 6 5 5 6 7 7 6 5 4 3 3 3 4 3 3 3 4 4 4 2 0 0 0 0 0 0 0 0 0 0 0 0 0
15 16 14 13 14 16 16 14 11 9 8 6 4 4 4 4 5 5 5 4 4 4 4 3 2 3 3 4 4 3 1 0 0 0 0 0 0 0 0 0 0 0 0
20 20 17 13 13 15 15 14 12 11 11 7 4 2 2 3 3 4 4 5 5 6 6 5 4 3 3 3 4 3 1 0 0 0 0 0 0 0 0 0 0 0 0
20 19 18 15 12 13 13 13 12 12 11 9 5 3 4 4 3 3 3 3 5 5 6 6 5 4 4 4 3 2 1 0 0 0 0 0 0 0 0 0 0 0 0
13 14 15 15 14 13 13 13 12 12 11 9 7 6 6 5 3 2 2 1 2 3 4 5 6 5 5 5 3 1 0 0 0 0 0 0 0 0 0 0 0 0 0
12 13 13 14 14 14 12 12 12 12 11 9 8 8 8 6 4 3 2 1 1 2 3 4 5 4 4 4 4 2 1 0 0 0 0 0 0 0 0 0 0 0 0
16 15 13 12 12 11 10 10 10 11 12 10 9 8 8 6 4 3 2 2 2 2 3 3 4 3 3 3 3 2 1 0 0 0 0 0 0 0 0 0 0 0 0
16 15 13 10 8 7 6 7 8 10 11 11 9 8 7 6 5 2 1 1 2 2 2 2 2 2 1 1 1 1 1 1 0 0 0 0 0 0 0 0 0 0 0
13 12 11 8 6 5 4 5 7 8 8 8 7 7 7 6 6 3 1 0 0 0 1 1 1 1 0 0 0 0 1 1 0 0 0 0 0 0 0 0 0 0 0
15 12 9 8 6 5 4 3 4 4 4 4 4 5 6 6 6 5 3 1 0 0 0 0 0 0 0 0 0 0 1 1 0 0 0 0 0 0 0 0 0 0 0
17 13 9 7 6 5 3 2 1 1 2 2 3 4 5 6 6 6 4 3 1 0 0 0 0 0 0 0 0 0 0 0 0 0 0 0 0 0 0 0 0 0 0
14 12 9 6 4 3 1 1 0 0 1 1 2 3 4 5 6 6 5 4 2 0 0 0 0 0 0 0 0 0 0 0 0 0 0 0 0 0 0 0 0 0 0
11 11 9 5 2 1 0 0 0 0 0 0 1 1 2 4 5 5 4 4 2 1 0 0 0 0 0 0 0 0 0 0 0 0 0 0 0 0 0 0 0 0 0
9 8 6 3 1 0 0 0 0 0 0 0 0 0 1 1 3 3 3 3 3 2 1 0 0 0 0 0 0 0 0 0 0 0 0 0 0 0 0 0 0 0 0
4 4 3 1 0 0 0 0 0 0 0 0 0 0 0 0 1 1 2 3 3 3 2 1 0 0 0 0 0 0 0 0 0 0 0 0 0 0 0 0 0 0 0
2 1 1 1 0 0 0 0 0 0 0 0 0 0 0 0 0 0 1 1 2 2 2 1 0 0 0 0 0 0 0 0 0 0 0 0 0 0 0 0 0 0 0
2 1 1 1 0 0 0 0 0 1 1 0 0 0 0 0 0 0 0 0 1 1 1 1 0 0 0 0 0 0 0 0 0 0 0 0 0 0 0 0 0 0 0
1 0 0 0 0 0 0 0 1 2 2 1 0 0 0 0 0 0 0 0 0 0 0 0 0 0 0 0 0 0 0 0 0 0 0 0 0 0 0 0 0 0 0
Wind_Speed
7 8 10 10 10 9 9 9 9 8 6 4 4 4 4 3 4 4 6 7 7 6 5 4 4 4 4 4 4 3 3 2 2 2 2 2 1 2 4 4 5 6 7
6 6 7 9 10 10 10 9 9 9 7 5 4 3 3 3 4 4 5 7 7 7 6 5 4 4 4 4 4 4 3 1 2 3 2 1 3 3 3 3 5 6 5
12 10 10 9 9 10 10 9 8 8 7 6 4 3 2 2 2 3 4 5 7 7 6 6 5 5 5 5 5 5 5 3 1 2 4 3 3 2 2 3 3 4 4
11 10 10 9 9 9 8 7 8 7 7 7 6 6 5 4 4 4 4 5 6 7 6 6 6 5 5 5 5 5 4 4 2 1 2 3 4 3 1 2 2 3 5
11 10 10 9 7 8 8 7 8 7 7 7 7 6 5 4 3 3 4 5 5 6 7 7 6 6 5 5 5 4 4 4 4 3 2 1 1 2 3 2 2 2 3
9 8 6 6 6 6 6 7 8 7 7 7 6 6 6 5 4 4 5 4 4 4 6 6 6 6 5 6 5 5 5 4 4 3 3 3 3 3 3 3 3 3 3
9 8 7 7 7 7 6 6 7 6 6 6 6 6 6 6 6 6 6 5 4 4 6 6 6 5 5 6 6 5 5 5 4 4 3 3 3 3 3 3 2 2 2
8 8 7 7 7 8 7 6 6 5 6 6 5 5 5 4 4 5 5 5 5 5 6 7 6 6 6 6 6 5 5 4 5 5 4 3 3 3 3 4 3 1 2
9 8 7 6 6 6 6 7 6 5 5 5 5 5 5 4 4 4 4 4 4 4 6 6 7 6 6 6 6 4 5 4 5 4 4 3 2 2 2 2 3 4 2
7 7 7 6 5 5 5 5 5 5 4 4 4 4 4 4 3 3 3 3 4 4 5 6 6 6 5 5 5 4 4 4 4 3 3 3 2 2 2 2 2 3 4
7 7 5 5 5 5 5 5 4 4 3 2 2 2 2 2 2 2 2 2 2 3 4 5 5 5 5 5 5 4 5 5 4 4 4 4 3 2 2 1 1 2 3
6 7 7 6 5 4 4 5 4 4 3 3 3 2 2 2 2 1 1 1 2 2 3 3 4 4 4 5 5 5 4 4 4 4 3 3 2 2 1 1 2 2 2
7 7 7 6 4 4 4 4 4 4 4 3 3 3 2 2 2 1 1 2 2 1 1 2 3 4 4 4 4 4 3 3 3 3 3 2 2 2 1 1 1 1 1
8 7 6 5 4 4 4 5 4 4 4 4 3 3 3 3 2 2 2 2 2 2 1 1 2 2 3 3 4 4 3 3 2 2 2 2 3 2 2 1 1 2 2
9 8 6 5 5 5 5 5 4 4 4 4 4 3 3 3 3 3 3 3 3 3 3 3 2 2 2 3 4 4 4 4 3 3 3 3 3 3 2 2 2 2 2
10 8 7 6 5 5 5 5 5 4 5 5 4 4 4 3 3 3 3 3 3 3 4 4 4 4 3 5 6 5 4 4 5 4 4 4 4 5 5 4 4 3 3
10 9 8 7 5 4 5 5 5 5 6 5 5 4 4 4 4 4 4 4 4 4 5 5 5 5 6 8 8 8 5 5 5 4 4 4 4 5 4 6 7 7 6
9 8 7 6 5 6 5 6 6 6 6 5 5 4 4 4 4 4 4 4 4 4 4 5 5 5 6 8 8 9 7 7 6 5 4 5 4 4 5 6 7 7 6
9 7 7 7 7 6 6 7 6 6 6 5 5 4 4 4 4 5 4 4 5 5 5 5 5 6 5 7 8 8 6 7 7 6 6 5 5 7 7 7 7 6 5
8 7 7 7 7 6 7 8 6 6 6 4 4 4 4 4 4 4 4 4 5 5 6 6 6 6 5 6 8 8 5 6 6 6 6 9 8 8 7 6 6 6 4
9 9 8 7 6 6 7 8 7 6 5 4 5 5 4 4 5 5 4 5 5 6 7 7 7 7 7 7 8 7 5 5 6 5 4 5 10 10 9 7 6 6 5
9 9 8 7 5 6 7 8 6 5 5 6 6 6 5 5 5 5 5 5 6 7 7 7 7 6 7 8 9 10 9 8 7 5 4 5 10 11 11 8 9 9 7
8 7 9 8 6 5 7 8 6 5 6 7 7 6 7 6 5 5 5 5 5 5 5 5 5 5 5 7 11 11 11 10 6 5 8 9 10 9 8 11 10 7 5
8 7 9 9 7 5 6 6 6 6 8 8 6 6 7 7 7 6 5 5 4 4 4 4 5 4 4 4 4 4 6 8 7 6 8 10 11 9 8 8 7 5 5
7 7 8 8 7 6 6 6 5 7 8 8 7 6 6 7 8 8 7 6 5 3 5 4 4 5 4 3 4 4 4 4 4 5 5 5 5 6 5 5 5 5 5
7 7 7 8 7 7 7 5 5 6 8 7 6 5 5 6 6 7 8 14 11 13 12 9 7 6 6 8 10 11 11 10 9 8 5 5 5 5 4 4 4 4 4
Wind_Direction
173 170 165 163 158 160 163 166 165 167 163 159 157 156 167 170 175 183 181 178 177 169 165 172 169 163 162 169 161 148 147 143 121 89 42 349 303 220 205 203 198 202 201
157 167 161 166 167 167 173 172 172 172 172 171 163 159 155 170 177 183 183 181 177 174 177 171 174 171 166 169 164 148 144 154 144 132 111 9 334 309 235 209 203 204 198
164 173 174 175 170 172 175 178 177 173 171 162 142 128 111 113 154 183 190 192 183 182 181 179 175 176 171 176 179 162 154 164 186 157 147 156 217 272 300 251 219 202 199
169 177 176 178 180 179 172 169 170 170 168 162 161 163 170 182 192 187 185 189 187 184 185 183 181 181 179 181 187 175 164 155 173 196 191 177 166 164 259 306 266 225 212
170 174 178 177 174 167 169 166 167 170 169 170 172 173 182 188 175 171 177 191 195 192 188 184 183 184 182 186 189 177 174 167 170 178 182 180 172 156 155 239 281 280 244
163 164 166 153 146 148 159 165 167 173 174 175 177 177 181 183 179 185 189 196 199 200 197 187 184 185 183 186 191 188 183 183 178 178 174 172 175 184 171 198 234 251 264
157 155 151 150 151 153 161 166 167 174 176 176 181 183 185 188 194 196 197 195 196 202 202 195 190 189 190 189 186 187 192 187 181 189 193 192 198 177 169 169 205 241 276
154 157 157 154 160 163 164 164 166 175 177 181 188 189 190 194 204 202 197 199 204 208 200 195 195 194 193 196 189 192 197 189 192 200 194 199 211 186 176 172 166 194 293
159 157 152 150 152 157 164 164 165 170 176 183 192 191 194 200 207 204 199 201 203 205 200 195 199 199 198 196 187 194 198 190 197 200 196 202 216 195 194 183 168 165 205
152 145 147 149 148 151 150 148 157 168 171 174 183 185 192 198 197 190 196 198 200 200 189 193 194 195 195 191 185 187 192 190 203 197 189 201 214 199 193 189 178 174 178
138 136 136 140 143 139 136 142 153 146 147 153 153 148 160 172 167 175 198 204 201 188 187 188 186 190 189 183 179 185 188 195 208 208 194 207 203 196 199 173 155 173 170
136 131 128 121 122 118 127 138 143 138 139 139 138 145 146 138 143 176 193 180 184 187 192 184 181 187 184 178 176 186 186 192 208 211 193 208 202 193 196 173 173 184 185
123 114 114 118 122 127 131 134 132 133 134 131 131 121 113 117 115 120 131 139 148 156 161 163 176 183 183 176 170 168 163 174 196 189 180 192 168 183 192 179 182 187 156
125 120 118 121 127 130 126 124 126 129 126 120 116 112 111 112 102 87 88 98 113 114 111 124 163 176 175 170 161 151 145 145 149 142 151 158 162 182 190 188 184 153 127
132 131 124 121 122 117 112 118 118 120 121 116 112 110 102 97 86 76 82 81 85 94 90 82 80 105 144 167 160 155 147 139 120 99 100 110 113 118 147 174 177 155 139
136 132 123 118 119 126 125 119 115 116 115 112 105 99 96 91 84 82 89 86 82 82 85 80 76 78 87 103 117 124 128 124 117 104 89 83 78 78 76 86 109 129 147
134 134 133 135 138 133 123 123 119 107 101 102 101 96 95 91 84 88 96 95 90 85 83 81 79 79 76 89 99 100 105 102 103 104 97 86 76 73 79 75 73 68 72
134 133 133 130 123 112 110 109 104 101 100 96 94 95 96 87 78 75 88 98 94 91 89 85 86 87 77 84 93 94 90 87 84 86 91 91 73 66 85 89 78 66 56
132 128 124 119 113 111 114 106 97 96 95 92 88 84 91 92 85 80 79 95 99 92 87 86 86 86 74 80 93 96 91 86 75 68 65 75 75 65 79 90 91 80 62
116 117 114 108 110 113 114 106 102 98 95 94 92 86 85 90 91 93 88 85 94 95 90 79 72 78 75 76 93 99 101 96 86 69 58 61 71 70 73 89 96 90 71
113 111 108 105 111 116 111 107 103 99 99 95 91 82 78 84 92 90 87 90 90 87 82 78 67 63 62 64 76 91 98 106 98 82 62 53 66 69 68 75 83 91 89
109 111 109 105 103 108 111 107 102 100 96 91 85 79 73 80 84 88 85 86 92 93 88 84 72 56 49 55 65 75 80 89 96 90 74 66 69 67 67 72 79 82 78
111 110 111 106 95 98 111 112 110 108 103 93 85 80 74 67 66 75 80 83 89 96 94 89 83 67 54 52 61 70 77 81 87 85 83 76 70 65 62 61 65 68 69
116 115 113 112 106 97 100 108 111 109 104 98 89 83 83 72 60 57 59 71 78 94 100 98 93 80 61 48 50 65 75 76 80 77 72 68 64 63 55 50 50 52 62
115 113 115 116 114 111 103 102 107 108 104 101 97 90 86 87 77 65 52 58 48 86 108 107 108 104 85 47 70 91 89 92 95 91 69 61 59 58 51 46 43 42 46
115 113 112 114 112 109 105 101 103 111 111 108 105 101 99 95 93 91 74 55 62 65 72 83 93 83 90 87 78 77 81 85 90 84 75 69 67 69 63 57 45 38 37